sat.trackr.live / text

‹ back to catalog

STARLINK-34249

NORAD 65376 · 2025-190AB

PAYLOAD ACTIVE UNKNOWN

§ Identity

Operator
Country
US
Launch date
2025-08-28
Launch site
AFETR
Launch vehicle
Mass (kg)
RCS (m²)

Purposes: comms

External: N2YO · Heavens-Above · Gunter

§ Orbital elements

Epoch: 2026-09-20T11:35:18.660768Z

Period
93.85 min
Inclination
53.1610°
Eccentricity
0.0001203
Mean motion
15.34408602 rev/d
Perigee alt
461.9 km
Apogee alt
463.5 km
Semi-major
6,840.8 km
B*
5.6778e-4
RAAN
339.4929°
Arg perigee
98.2122°
Mean anomaly
261.9018°
Rev number
6,005

§ Raw data

STARLINK-342491 65376U 25190AB  26263.48285487  .00018861  00000+0  56778-3 0  99982 65376  53.1610 339.4929 0001203  98.2122 261.9018 15.34408602 60055

JSON: /api/v1/satellites/65376 · /tle

For live sub-satellite position, see the globe view (requires WebGL).

§ Visibility from observer

Set your observer location to see the next 7 days of passes ≥ 10°. The values pass through the URL so the page stays shareable.

No JS? Fill the form by hand. The geolocation button needs JavaScript.